sat.trackr.live / text

‹ back to catalog

STARLINK-31212

NORAD 58875 · 2024-019Y

PAYLOAD ACTIVE UNKNOWN

§ Identity

Operator
Country
US
Launch date
2024-01-29
Launch site
AFETR
Launch vehicle
Mass (kg)
RCS (m²)

Purposes: comms

External: N2YO · Heavens-Above · Gunter

§ Orbital elements

Epoch: 2026-09-20T07:49:48.533088Z

Period
94.27 min
Inclination
43.0004°
Eccentricity
0.0001186
Mean motion
15.27578947 rev/d
Perigee alt
482.2 km
Apogee alt
483.9 km
Semi-major
6,861.2 km
B*
4.5056e-5
RAAN
229.3667°
Arg perigee
270.0422°
Mean anomaly
90.0294°
Rev number
14,883

§ Raw data

STARLINK-312121 58875U 24019Y   26263.32625617  .00000978  00000+0  45056-4 0  99972 58875  43.0004 229.3667 0001186 270.0422  90.0294 15.27578947148837

JSON: /api/v1/satellites/58875 · /tle

For live sub-satellite position, see the globe view (requires WebGL).

§ Visibility from observer

Set your observer location to see the next 7 days of passes ≥ 10°. The values pass through the URL so the page stays shareable.

No JS? Fill the form by hand. The geolocation button needs JavaScript.